Location: Betra
(48.4113°N, 8.6634°E)
Time: 17:26:24
(UTC+00:00)

Cosmos 2333 Rocket - Pass Details

Date: 23 May 2024
Orbit: 838 x 863 km, 70.8° (Epoch: 16 June)

Event Time Altitude Azimuth Distance (km) Brightness Sun altitude
Rises 00:46:11 0° 335° (NNW) 3,423 6.0 -18.4°
Reaches altitude 10° 00:48:50 10° 344° (NNW) 2,488 5.4 -18.3°
Maximum altitude 00:54:06 37° 50° (NE) 1,318 3.7 -17.9°
Drops below altitude 10° 00:59:22 10° 117° (ESE) 2,490 4.6 -17.6°
Sets 01:02:01 0° 126° (SE) 3,426 5.3 -17.4°
